EA6DT Weather Reports


time (UTC)temp
F
wind
direction
speed
knots
gust
knots
rain 1hr
in
rain 24hr
in
rain mn
in
humidity
%
barometer
mb
20260506203857 61 59 0.0 0.0 0.00 0.00 0.00 85 1013.9
20260506203343 61 85 0.0 0.0 0.00 0.00 0.00 85 1013.8
20260506202829 61 68 0.0 0.0 0.00 0.00 0.00 84 1013.8
20260506202340 61 52 0.9 0.0 0.00 0.00 0.00 84 1013.8
20260506201830 61 44 0.9 0.0 0.00 0.00 0.00 84 1013.7
20260506201338 62 37 0.0 0.0 0.00 0.00 0.00 83 1013.6
20260506200848 62 47 0.0 0.0 0.00 0.00 0.00 82 1013.6
20260506200357 62 83 0.0 0.0 0.00 0.00 0.00 82 1013.5
20260506195842 62 92 0.0 0.0 0.00 0.00 0.00 82 1013.5
20260506195331 62 75 0.0 0.0 0.00 0.00 0.00 82 1013.4
20260506194858 62 76 0.0 0.0 0.00 0.00 0.00 82 1013.4
20260506194327 62 88 0.9 0.0 0.00 0.00 0.00 82 1013.4
20260506193836 62 97 0.9 0.0 0.00 0.00 0.00 81 1013.3
20260506193326 62 108 0.9 0.0 0.00 0.00 0.00 81 1013.2
20260506192833 63 83 1.7 0.0 0.00 0.00 0.00 81 1013.1
20260506192345 63 97 0.9 0.0 0.00 0.00 0.00 81 1013.0
20260506191835 63 102 0.9 0.0 0.00 0.00 0.00 81 1013.0
20260506191345 63 90 0.9 0.0 0.00 0.00 0.00 81 1012.9
20260506190855 63 90 0.9 0.0 0.00 0.00 0.00 80 1012.8
20260506190341 63 95 1.7 0.0 0.00 0.00 0.00 79 1012.7
20260506185827 64 93 1.7 0.0 0.00 0.00 0.00 79 1012.7
20260506185337 64 103 0.9 0.0 0.00 0.00 0.00 79 1012.6
20260506184827 64 66 0.0 0.0 0.00 0.00 0.00 79 1012.6
20260506184357 64 95 0.0 0.0 0.00 0.00 0.00 78 1012.5
20260506183842 64 68 0.9 0.0 0.00 0.00 0.00 78 1012.4
20260506183332 64 62 0.9 0.0 0.00 0.00 0.00 78 1012.4
20260506182843 64 49 0.9 0.0 0.00 0.00 0.00 78 1012.3
20260506182355 64 67 0.9 0.0 0.00 0.00 0.00 78 1012.3
20260506181841 65 67 1.7 0.0 0.00 0.00 0.00 78 1012.3
20260506181331 64 97 1.7 0.0 0.00 0.00 0.00 78 1012.3
20260506180841 64 89 3.5 0.0 0.00 0.00 0.00 78 1012.3
20260506180332 64 62 3.5 0.0 0.00 0.00 0.00 79 1012.3
20260506175835 65 116 2.6 0.0 0.00 0.00 0.00 79 1012.3
20260506175327 65 107 2.6 0.0 0.00 0.00 0.00 80 1012.3
20260506174833 65 93 2.6 0.0 0.00 0.00 0.00 81 1012.3
20260506174343 64 54 1.7 0.0 0.00 0.00 0.00 80 1012.3
20260506173834 64 34 1.7 0.0 0.00 0.00 0.00 81 1012.3
20260506173326 64 103 2.6 0.0 0.00 0.00 0.00 81 1012.3
20260506172836 64 43 4.3 0.0 0.00 0.00 0.00 81 1012.2
20260506172342 64 143 3.5 0.0 0.00 0.00 0.00 82 1012.1
20260506171833 64 105 3.5 0.0 0.00 0.00 0.00 82 1012.2
20260506171344 64 85 3.5 0.0 0.00 0.00 0.00 83 1012.1
20260506170854 64 65 2.6 0.0 0.00 0.00 0.00 83 1012.2
20260506170339 64 59 1.7 0.0 0.00 0.00 0.00 83 1012.3
20260506165842 64 68 2.6 0.0 0.00 0.00 0.00 83 1012.3
20260506165334 64 86 2.6 0.0 0.00 0.00 0.00 83 1012.2
20260506164845 64 350 1.7 0.0 0.00 0.00 0.00 82 1012.3
20260506164336 64 30 2.6 0.0 0.00 0.00 0.00 81 1012.3
20260506163827 64 13 1.7 0.0 0.00 0.00 0.00 80 1012.1
20260506163335 64 53 1.7 0.0 0.00 0.00 0.00 79 1012.1
20260506162845 64 108 2.6 0.0 0.00 0.00 0.00 78 1011.9
20260506162335 64 76 1.7 0.0 0.00 0.00 0.00 78 1012.0
20260506161845 64 46 1.7 0.0 0.00 0.00 0.00 77 1012.2
20260506161336 64 121 1.7 0.0 0.00 0.00 0.00 77 1012.1
20260506160842 64 57 1.7 0.0 0.00 0.00 0.00 76 1012.1
20260506160332 64 61 0.9 0.0 0.00 0.00 0.00 77 1012.2
20260506155835 64 19 0.9 0.0 0.00 0.00 0.00 74 1012.2
20260506155327 64 89 1.7 0.0 0.00 0.00 0.00 75 1012.2
20260506154837 65 67 1.7 0.0 0.00 0.00 0.00 77 1012.3
20260506154403 65 56 1.7 0.0 0.00 0.00 0.00 77 1012.2
20260506153834 65 102 2.6 0.0 0.00 0.00 0.00 77 1012.0
20260506153345 65 69 2.6 0.0 0.00 0.00 0.00 78 1012.1
20260506152836 65 56 2.6 0.0 0.00 0.00 0.00 78 1012.1
20260506152402 65 52 3.5 0.0 0.00 0.00 0.00 77 1012.1
20260506151851 65 57 4.3 0.0 0.00 0.00 0.00 76 1012.1
20260506151401 65 48 4.3 0.0 0.00 0.00 0.00 77 1012.1
20260506150830 66 103 4.3 0.0 0.00 0.00 0.00 76 1012.1
20260506150336 66 70 4.3 0.0 0.00 0.00 0.00 76 1012.1
20260506145840 66 103 3.5 0.0 0.00 0.00 0.00 76 1012.2
20260506145330 66 41 3.5 0.0 0.00 0.00 0.00 75 1012.3
20260506144900 66 57 3.5 0.0 0.00 0.00 0.00 76 1012.3
20260506144329 65 79 3.5 0.0 0.00 0.00 0.00 76 1012.4
20260506143835 66 101 2.6 0.0 0.00 0.00 0.00 75 1012.4
20260506143327 66 108 2.6 0.0 0.00 0.00 0.00 75 1012.5
20260506142857 66 95 2.6 0.0 0.00 0.00 0.00 74 1012.4
20260506142327 66 96 3.5 0.0 0.00 0.00 0.00 75 1012.4
20260506141837 66 65 3.5 0.0 0.00 0.00 0.00 77 1012.4
20260506141405 66 142 3.5 0.0 0.00 0.00 0.00 77 1012.4
20260506140834 65 103 4.3 0.0 0.00 0.00 0.00 78 1012.5
20260506140403 65 77 4.3 0.0 0.00 0.00 0.00 79 1012.5
20260506135827 65 120 3.5 0.0 0.00 0.00 0.00 80 1012.6
20260506135334 65 130 3.5 0.0 0.00 0.00 0.00 81 1012.6
20260506134345 65 77 4.3 0.0 0.00 0.00 0.00 83 1012.6
20260506133830 64 102 4.3 0.0 0.00 0.00 0.00 82 1012.7
20260506133337 64 113 3.5 0.0 0.00 0.00 0.00 83 1012.8
20260506132827 64 107 3.5 0.0 0.00 0.00 0.00 84 1012.9
20260506132337 65 113 2.6 0.0 0.00 0.00 0.00 84 1012.9
20260506131848 65 148 2.6 0.0 0.00 0.00 0.00 83 1012.9
20260506131337 65 130 2.6 0.0 0.00 0.00 0.00 82 1012.7
20260506130903 65 190 3.5 0.0 0.00 0.00 0.00 81 1012.7
20260506130332 65 182 3.5 0.0 0.00 0.00 0.00 81 1012.8
20260506125836 66 132 3.5 0.0 0.00 0.00 0.00 79 1012.7
20260506125406 66 128 4.3 0.0 0.00 0.00 0.00 79 1012.7
20260506124832 66 117 4.3 0.0 0.00 0.00 0.00 78 1012.6
20260506124343 67 195 3.5 0.0 0.00 0.00 0.00 77 1012.7
20260506123852 67 153 4.3 0.0 0.00 0.00 0.00 76 1012.7
20260506123422 66 131 5.2 0.0 0.00 0.00 0.00 75 1012.5
20260506122843 67 107 4.3 0.0 0.00 0.00 0.00 75 1012.6
20260506122333 67 131 4.3 0.0 0.00 0.00 0.00 76 1012.5
20260506121843 66 184 5.2 0.0 0.00 0.00 0.00 75 1012.3
20260506121334 66 143 6.1 0.0 0.00 0.00 0.00 75 1012.2
20260506120904 66 125 6.1 0.0 0.00 0.00 0.00 74 1012.3
20260506120329 67 191 4.3 0.0 0.00 0.00 0.00 69 1012.2
20260506115833 70 318 5.2 0.0 0.00 0.00 0.00 67 1012.4
20260506115344 70 99 6.1 0.0 0.00 0.00 0.00 68 1012.1
20260506114835 70 86 5.2 0.0 0.00 0.00 0.00 67 1012.0
20260506114402 70 66 6.1 0.0 0.00 0.00 0.00 66 1012.0
20260506113832 71 85 5.2 0.0 0.00 0.00 0.00 63 1011.9
20260506113343 73 96 2.6 0.0 0.00 0.00 0.00 60 1011.8
20260506112853 73 170 1.7 0.0 0.00 0.00 0.00 59 1011.8
20260506112343 72 154 1.7 0.0 0.00 0.00 0.00 58 1011.8
20260506111829 72 75 3.5 0.0 0.00 0.00 0.00 60 1011.9
20260506111400 73 115 3.5 0.0 0.00 0.00 0.00 59 1011.8
20260506110829 73 89 1.7 0.0 0.00 0.00 0.00 60 1011.9
20260506110333 72 107 1.7 0.0 0.00 0.00 0.00 62 1012.0
20260506105832 72 68 2.6 0.0 0.00 0.00 0.00 62 1012.0
20260506105343 72 127 2.6 0.0 0.00 0.00 0.00 63 1012.2
20260506104833 72 1 2.6 0.0 0.00 0.00 0.00 63 1012.3
20260506104343 72 136 1.7 0.0 0.00 0.00 0.00 63 1012.3
20260506103833 71 160 0.9 0.0 0.00 0.00 0.00 63 1012.4
20260506103340 71 105 2.6 0.0 0.00 0.00 0.00 60 1012.3
20260506102850 71 104 3.5 0.0 0.00 0.00 0.00 62 1012.4
20260506102339 71 86 2.6 0.0 0.00 0.00 0.00 61 1012.3
20260506101829 71 171 2.6 0.0 0.00 0.00 0.00 62 1012.3
20260506101340 71 92 2.6 0.0 0.00 0.00 0.00 61 1012.4
20260506100906 71 58 1.7 0.0 0.00 0.00 0.00 61 1012.5
20260506100335 71 238 0.9 0.0 0.00 0.00 0.00 61 1012.5
20260506095839 71 103 0.9 0.0 0.00 0.00 0.00 61 1012.5
20260506095330 71 91 1.7 0.0 0.00 0.00 0.00 62 1012.5
20260506094836 71 120 1.7 0.0 0.00 0.00 0.00 64 1012.4
20260506094348 70 82 1.7 0.0 0.00 0.00 0.00 66 1012.4
20260506093838 69 210 2.6 0.0 0.00 0.00 0.00 67 1012.4
20260506093329 69 79 2.6 0.0 0.00 0.00 0.00 67 1012.4
20260506092839 69 56 2.6 0.0 0.00 0.00 0.00 67 1012.5
20260506092327 69 174 2.6 0.0 0.00 0.00 0.00 68 1012.5
20260506091837 69 102 1.7 0.0 0.00 0.00 0.00 69 1012.5
20260506091328 68 352 1.7 0.0 0.00 0.00 0.00 68 1012.4
20260506090838 69 68 1.7 0.0 0.00 0.00 0.00 69 1012.5
20260506090350 69 27 1.7 0.0 0.00 0.00 0.00 70 1012.5
20260506085828 68 51 1.7 0.0 0.00 0.00 0.00 70 1012.5
20260506085338 68 79 1.7 0.0 0.00 0.00 0.00 71 1012.5
20260506084828 68 103 3.5 0.0 0.00 0.00 0.00 71 1012.5
20260506084340 68 81 2.6 0.0 0.00 0.00 0.00 71 1012.5
20260506083850 68 360 2.6 0.0 0.00 0.00 0.00 71 1012.5
20260506083337 68 56 0.9 0.0 0.00 0.00 0.00 71 1012.6
20260506082828 68 55 0.9 0.0 0.00 0.00 0.00 74 1012.6
20260506082339 67 155 0.9 0.0 0.00 0.00 0.00 73 1012.6
20260506081829 67 111 1.7 0.0 0.00 0.00 0.00 74 1012.6
20260506081340 66 132 2.6 0.0 0.00 0.00 0.00 77 1012.6
20260506080329 65 43 2.6 0.0 0.00 0.00 0.00 79 1012.6
20260506073427 64 46 0.9 0.0 0.00 0.00 0.00 88 1012.7
20260506072832 63 161 0.9 0.0 0.00 0.00 0.00 91 1012.6
20260506072339 63 165 0.9 0.0 0.00 0.00 0.00 93 1012.6
20260506071830 62 136 0.9 0.0 0.00 0.00 0.00 94 1012.6
20260506071339 62 97 0.9 0.0 0.00 0.00 0.00 94 1012.6
20260506070829 61 48 0.9 0.0 0.00 0.00 0.00 94 1012.6
20260506070340 61 52 0.9 0.0 0.00 0.00 0.00 95 1012.6
20260506062326 57 360 0.9 0.0 0.00 0.00 0.00 95 1012.8
20260506061834 56 356 1.7 0.0 0.00 0.00 0.00 95 1012.8
20260506061405 56 360 1.7 0.0 0.00 0.00 0.00 95 1012.8
20260506060852 56 360 1.7 0.0 0.00 0.00 0.00 95 1012.8
20260506060340 56 345 1.7 0.0 0.00 0.00 0.00 95 1012.7
20260506051328 56 360 0.0 0.0 0.00 0.00 0.00 95 1012.3
20260506050847 56 360 0.0 0.0 0.00 0.00 0.00 95 1012.3
20260506050337 56 360 0.0 0.0 0.00 0.00 0.00 95 1012.2
20260506044827 56 360 0.0 0.0 0.00 0.00 0.00 95 1012.2
20260506044338 56 360 0.0 0.0 0.00 0.00 0.00 95 1012.1
20260506043825 56 360 0.0 0.0 0.00 0.00 0.00 95 1012.0
20260506043335 56 360 0.0 0.0 0.00 0.00 0.00 95 1012.0
20260506042826 56 360 0.0 0.0 0.00 0.00 0.00 94 1011.9
20260506042337 56 360 0.0 0.0 0.00 0.00 0.00 95 1011.9
20260506041827 55 360 0.0 0.0 0.00 0.00 0.00 94 1011.8
20260506041334 55 360 0.0 0.0 0.00 0.00 0.00 94 1011.8
20260506040844 55 360 0.9 0.0 0.00 0.00 0.00 94 1011.8
20260506040334 55 360 0.9 0.0 0.00 0.00 0.00 94 1011.8
20260506035837 55 360 0.9 0.0 0.00 0.00 0.00 94 1011.7
20260506035348 55 360 0.9 0.0 0.00 0.00 0.00 94 1011.7
20260506034833 55 360 0.0 0.0 0.00 0.00 0.00 94 1011.7
20260506034343 55 360 0.0 0.0 0.00 0.00 0.00 94 1011.6
20260506033833 56 360 0.0 0.0 0.00 0.00 0.00 94 1011.5
20260506033325 56 360 0.0 0.0 0.00 0.00 0.00 94 1011.5
20260506032836 56 360 0.9 0.0 0.00 0.00 0.00 95 1011.4
20260506032342 56 360 0.9 0.0 0.00 0.00 0.00 94 1011.4
20260506031853 56 360 0.0 0.0 0.00 0.00 0.00 94 1011.4
20260506031344 56 360 0.9 0.0 0.00 0.00 0.00 94 1011.4
20260506030854 56 360 1.7 0.0 0.00 0.00 0.00 94 1011.5
20260506030400 56 360 1.7 0.0 0.00 0.00 0.00 94 1011.4
20260506025842 56 360 0.9 0.0 0.00 0.00 0.00 94 1011.3
20260506025354 56 360 0.0 0.0 0.00 0.00 0.00 94 1011.2
20260506024904 56 360 0.0 0.0 0.00 0.00 0.00 94 1011.1
20260506024330 56 360 0.9 0.0 0.00 0.00 0.00 94 1011.2
20260506023840 56 360 1.7 0.0 0.00 0.00 0.00 94 1011.2
20260506023331 56 360 1.7 0.0 0.00 0.00 0.00 93 1011.3
20260506022841 57 360 0.9 0.0 0.00 0.00 0.00 94 1011.2
20260506022331 57 360 0.0 0.0 0.00 0.00 0.00 94 1011.3
20260506021837 57 360 0.0 0.0 0.00 0.00 0.00 93 1011.2
20260506021328 57 360 0.0 0.0 0.00 0.00 0.00 93 1011.2
20260506020833 57 360 0.0 0.0 0.00 0.00 0.00 93 1011.2
20260506020343 58 360 0.9 0.0 0.00 0.00 0.00 94 1011.2
20260506015845 57 360 0.9 0.0 0.00 0.00 0.00 94 1011.3
20260506015335 57 360 0.9 0.0 0.00 0.00 0.00 93 1011.3
20260506014906 57 360 0.9 0.0 0.00 0.00 0.00 93 1011.4
20260506014357 58 360 1.7 0.0 0.00 0.00 0.00 93 1011.4
20260506013842 58 360 0.9 0.0 0.00 0.00 0.00 93 1011.5
20260506013332 58 360 0.0 0.0 0.00 0.00 0.00 93 1011.5
20260506012843 59 360 0.0 0.0 0.00 0.00 0.00 93 1011.4
20260506012334 59 360 0.0 0.0 0.00 0.00 0.00 93 1011.5
20260506011844 59 360 0.0 0.0 0.00 0.00 0.00 93 1011.5
20260506011334 59 360 0.0 0.0 0.00 0.00 0.00 93 1011.4
20260506010900 59 360 0.0 0.0 0.00 0.00 0.00 93 1011.5
20260506010330 59 360 0.0 0.0 0.00 0.00 0.00 93 1011.6
20260506005834 59 360 0.9 0.0 0.00 0.00 0.00 93 1011.6
20260506005404 59 360 0.0 0.0 0.00 0.00 0.00 93 1011.6
20260506004830 60 360 0.0 0.0 0.00 0.00 0.00 93 1011.7
20260506004400 60 360 0.0 0.0 0.00 0.00 0.00 93 1011.7
20260506003849 60 360 0.0 0.0 0.00 0.00 0.00 93 1011.8
20260506003350 60 360 0.0 0.0 0.00 0.00 0.00 93 1011.8
20260506002839 60 360 0.0 0.0 0.00 0.00 0.00 93 1011.9
20260506002331 60 360 0.0 0.0 0.00 0.00 0.00 92 1012.0
20260506001841 60 360 0.0 0.0 0.00 0.00 0.00 92 1012.0
20260506001331 60 360 0.0 0.0 0.00 0.00 0.00 92 1012.0
20260506000917 60 360 0.0 0.0 0.00 0.00 0.00 92 1012.1
20260506000343 59 360 0.0 0.0 0.00 0.00 0.00 92 1012.2
20260505235826 60 360 0.9 0.0 0.00 0.00 0.00 92 1012.2
20260505235336 60 360 0.9 0.0 0.00 0.00 0.00 92 1012.3
20260505234826 60 360 0.9 0.0 0.00 0.00 0.00 91 1012.2
20260505234333 60 360 0.9 0.0 0.00 0.00 0.00 91 1012.2
20260505233843 60 360 0.9 0.0 0.00 0.00 0.00 91 1012.3
20260505233333 60 360 0.0 0.0 0.00 0.00 0.00 91 1012.2
20260505232843 61 360 0.9 0.0 0.00 0.00 0.00 91 1012.2
20260505232334 61 360 0.9 0.0 0.00 0.00 0.00 91 1012.2
20260505231840 61 360 0.9 0.0 0.00 0.00 0.00 91 1012.2
20260505231330 61 360 0.9 0.0 0.00 0.00 0.00 91 1012.1
20260505230900 61 360 0.9 0.0 0.00 0.00 0.00 92 1012.0
20260505230331 61 360 0.9 0.0 0.00 0.00 0.00 92 1012.0
20260505225830 61 360 0.9 0.0 0.00 0.00 0.00 92 1012.0
20260505225400 61 360 0.9 0.0 0.00 0.00 0.00 92 1012.0
20260505224849 61 360 0.9 0.0 0.00 0.00 0.00 92 1012.1
20260505224339 61 360 0.9 0.0 0.00 0.00 0.00 92 1012.1
20260505223829 61 360 1.7 0.0 0.00 0.00 0.00 92 1012.1
20260505223335 61 360 1.7 0.0 0.00 0.00 0.00 92 1012.2
20260505222827 61 360 1.7 0.0 0.00 0.00 0.00 92 1012.3
20260505222357 61 360 1.7 0.0 0.00 0.00 0.00 92 1012.3
20260505221826 61 360 0.9 0.0 0.00 0.00 0.00 92 1012.3
20260505221332 62 360 0.9 0.0 0.00 0.00 0.00 92 1012.3
20260505220843 62 360 1.7 0.0 0.00 0.00 0.00 92 1012.4
20260505220334 62 360 1.7 0.0 0.00 0.00 0.00 92 1012.4
20260505215837 62 360 2.6 0.0 0.00 0.00 0.00 92 1012.4
20260505215329 62 360 2.6 0.0 0.00 0.00 0.00 92 1012.5
20260505214855 62 360 2.6 0.0 0.00 0.00 0.00 92 1012.5
20260505214345 62 360 3.5 0.0 0.00 0.00 0.00 92 1012.5
20260505213835 62 360 2.6 0.0 0.00 0.00 0.00 92 1012.4
20260505213326 63 360 2.6 0.0 0.00 0.00 0.00 92 1012.4
20260505212836 63 360 3.5 0.0 0.00 0.00 0.00 92 1012.5
20260505212343 62 360 3.5 0.0 0.00 0.00 0.00 92 1012.5
20260505211854 62 360 4.3 0.0 0.00 0.00 0.00 92 1012.5
20260505211344 62 360 4.3 0.0 0.00 0.00 0.00 92 1012.5
20260505210855 62 360 4.3 0.0 0.00 0.00 0.00 92 1012.4
20260505210326 62 360 4.3 0.0 0.00 0.00 0.00 92 1012.4
20260505205827 62 360 3.5 0.0 0.00 0.00 0.00 92 1012.4
20260505205338 62 360 3.5 0.0 0.00 0.00 0.00 91 1012.3
20260505204829 62 360 2.6 0.0 0.00 0.00 0.00 91 1012.4
20260505204339 62 360 1.7 0.0 0.00 0.00 0.00 91 1012.4